PUUANAHULU HI US current weather conditions

sailwx.info

Wind from 156 at 2 knots gusting 9

Air temperature 23.9° C
Dewpoint 19.0° C

Last reported at 2015-Sep-01 17:37 UTC.
Time now 2015-Sep-01 18:14 UTC

Location: N 19°50' W 155°46'.
View on Google Maps.

See reports from other nearby stations

  
Tides and Currents Weather Stations Pressure Air Temp Water Temp Dewpoint Dewpoint Depression Visibility Wind Speed Wind Dir Waves Ship Positions
date/time (UTC)wind fromknots sea level pressurealtimeterstation pressurevisibilityair tempwater tempwave heightnotes
2015-Sep-01 17:37 156 2 gusting 9 23.9
2015-Sep-01 16:37 148 6 gusting 8 19.4
2015-Sep-01 15:37 163 7 gusting 11 18.9
2015-Sep-01 14:37 155 6 gusting 9 18.9
2015-Sep-01 13:37 142 5 gusting 6 18.3
2015-Sep-01 12:37 150 5 gusting 6 18.9
2015-Sep-01 11:37 175 3 gusting 7 19.4
2015-Sep-01 10:37 147 4 gusting 7 19.4
2015-Sep-01 09:37 133 4 gusting 6 20.0
2015-Sep-01 08:37 147 3 gusting 5 20.6
2015-Sep-01 07:37 127 3 gusting 6 21.1
2015-Sep-01 06:37 089 3 gusting 5 22.2
2015-Sep-01 05:37 109 4 gusting 7 22.2
2015-Sep-01 04:37 076 3 gusting 7 23.3
2015-Sep-01 03:37 164 4 gusting 10 25.6
2015-Sep-01 02:37 166 4 gusting 13 22.8
2015-Sep-01 01:37 263 9 gusting 15 26.7
2015-Sep-01 00:37 267 7 gusting 14 27.2
2015-Aug-31 23:37 273 8 gusting 13 26.1
2015-Aug-31 22:37 266 6 gusting 13 27.2
2015-Aug-31 21:37 336 5 gusting 13 28.9
2015-Aug-31 20:37 006 7 gusting 15 28.3
2015-Aug-31 19:37 358 9 gusting 13 26.7
2015-Aug-31 18:37 003 5 gusting 8 26.1
2015-Aug-31 17:37 150 4 gusting 9 23.9
2015-Aug-31 16:37 136 6 gusting 9 18.3
2015-Aug-31 15:37 154 4 gusting 8 17.8
2015-Aug-31 14:37 133 6 gusting 10 18.3
2015-Aug-31 13:37 132 7 gusting 10 18.3
2015-Aug-31 12:37 113 6 gusting 9 18.3
2015-Aug-31 11:37 155 4 gusting 7 18.3
2015-Aug-31 10:37 160 5 gusting 7 18.3
2015-Aug-31 09:37 133 4 gusting 6 18.9
2015-Aug-31 08:37 169 6 gusting 8 20.0
2015-Aug-31 07:37 146 5 gusting 7 20.0
2015-Aug-31 06:37 158 6 gusting 7 20.6
2015-Aug-31 05:37 210 4 gusting 10 22.2
2015-Aug-31 04:37 011 0 gusting 14 22.2
2015-Aug-31 03:37 346 8 gusting 15 23.9
2015-Aug-31 02:37 346 8 gusting 14 24.4
2015-Aug-31 01:37 358 8 gusting 13 24.4
2015-Aug-31 00:37 357 8 gusting 17 25.6
2015-Aug-30 23:37 341 8 gusting 19 27.2
2015-Aug-30 22:37 342 10 gusting 16 27.8
2015-Aug-30 21:37 305 4 gusting 13 26.7
2015-Aug-30 20:37 215 5 gusting 9 26.1
2015-Aug-30 19:37 143 3 gusting 7 21.7
2015-Aug-30 18:37 119 0 gusting 6 22.8